Regional Weather Roundup
Issued by NWS

Home | Current Version | Previous Version | Graphics & Text | Print | Product List | Glossary On
Versions: 1 2 3 4 5 6 7 8 9 10 11 12 13 14 15 16 17 18 19 20 21 22 23 24 25 26 27 28 29 30 31 32 33 34 35 36 37 38 39 40 41 42 43 44 45 46 47 48 49 50
000
ASUS45 KABQ 292301
RWRNM
NEW MEXICO REGIONAL WEATHER ROUNDUP
NATIONAL WEATHER SERVICE ALBUQUERQUE NM
500 PM MDT SAT AUG 29 2015

NOTE: "FAIR" MEANS FEW OR NO CLOUDS BELOW 12,000 FEET AGL WITH NO
       SIGNIFICANT WEATHER OR OBSTRUCTIONS TO VISION.

      THIS PRODUCT IS RELEASED AS TWO VERSIONS.  ONE VERSION NEAR
      THE TOP OF THE HOUR CONTAINING PRELIMINARY DATA FROM ALBUQUERQUE
      AND OTHER STATIONS.  A FINAL VERSION WITH ADDITIONAL DATA IS
      ISSUED ABOUT 10 MINUTES AFTER THE HOUR.

NMZ501-503-504-510>518-300000-
NORTHWEST PLATEAU/NORTHCENTRAL MOUNTAINS

CITY           SKY/WX    TMP DP  RH WIND       PRES   REMARKS
FARMINGTON     SUNNY     90  34  13 SW7       30.15F
SANTA FE       LGT RAIN  78  44  29 NE5       30.29F
TAOS           PTSUNNY   75  41  29 S14       30.36F
ANGEL FIRE     FAIR      64  46  51 S9        30.46F

$$
NMZ402-403-502-505>509-300000-
WESTCENTRAL MOUNTAINS/SOUTHWEST MOUNTAINS

CITY           SKY/WX    TMP DP  RH WIND       PRES   REMARKS
GALLUP         FAIR      87  38  17 E6        30.23F
GRANTS         FAIR      79  47  32 SW3       30.28F
SILVER CITY      N/A     82  50  32 N7        30.19S

$$
NMZ407-409-411-412-300000-
SOUTHERN DESERTS

CITY           SKY/WX    TMP DP  RH WIND       PRES   REMARKS
DEMING         FAIR      90  50  25 SE10      30.07F
HOLLOMAN AFB   MOSUNNY   78  61  55 SE9       30.07F
ALAMOGORDO     PTSUNNY   72  64  78 E3        30.12F
T OR C         FAIR      92  43  18 VRB6      30.10F

$$
NMZ519>523-300000-
CENTRAL VALLEYS/CENTRAL HIGHLANDS

CITY           SKY/WX    TMP DP  RH WIND       PRES   REMARKS
ALBUQUERQUE    PTSUNNY   84  42  22 SE17      30.19F
DOUBLE EAGLE   PTSUNNY   81  46  30 SE23      30.24S
MORIARTY ARPT  FAIR      80  40  24 NE8       30.29S
CLINES CORNERS CLOUDY    77  46  33 N10       30.33S
BELEN          FAIR      86  40  20 E17G26    30.17S
SOCORRO        NOT AVBL

$$
NMZ524>526-539-540-300000-
SOUTHCENTRAL MOUNTAINS

CITY           SKY/WX    TMP DP  RH WIND       PRES   REMARKS
RUIDOSO        PTSUNNY   75  50  41 MISG      30.32S

$$
NMZ527>531-300000-
NORTHEAST HIGHLANDS/NORTHEAST PLAINS

CITY           SKY/WX    TMP DP  RH WIND       PRES   REMARKS
LAS VEGAS      CLOUDY    71  45  39 W10       30.34F
RATON          LGT RAIN  75  47  36 W13       30.27S
CLAYTON        NOT AVBL

$$
NMZ532>537-300000-
EASTCENTRAL PLAINS

CITY           SKY/WX    TMP DP  RH WIND       PRES   REMARKS
TUCUMCARI      MOSUNNY   89  50  26 NE13      30.11F
CANNON AFB     PTSUNNY   82  57  43 SE8       30.15S
CLOVIS AIRPORT CLOUDY    81  61  50 SE10      30.16F

$$
NMZ028-029-538-300000-
SOUTHEAST PLAINS

CITY           SKY/WX    TMP DP  RH WIND       PRES   REMARKS
ROSWELL        SUNNY     89  55  31 E9        30.08S
ARTESIA        SUNNY     90  54  29 S7        30.08F
CARLSBAD       NOT AVBL


$$



USA.gov is the U.S. government's official web portal to all federal, state and local government web resources and services.